Location: Buraco da Coruja
(19.9220°S, 44.0539°W)
Time: 21:48:34
(UTC+00:00)

Daily predictions for brighter satellites

Satellite Brightness Start Highest point End
(mag) Time Altitude Azimuth Time Altitude Azimuth Time Altitude Azimuth
Cosmos 2221 2.6 21:56:56 10° N 22:01:13 58° E 22:05:33 10° SSE
Okean-O 4.1 21:58:26 10° S 22:02:40 43° WSW 22:06:51 10° NNW
CZ-4 R/B 1.4 21:59:34 10° S 22:03:32 85° WSW 22:07:31 10° NNW
Cosmos 2251 Rocket 3.6 21:58:35 10° N 22:03:54 71° ENE 22:09:18 10° SSE
YAOGAN 1 2.5 22:01:57 10° SSE 22:06:18 72° ENE 22:10:37 10° N
CZ-4C R/B 4.3 21:59:51 10° NW 22:07:54 48° WSW 22:15:21 10° S
Ariane Rocket 4.1 22:07:56 10° SE 22:11:56 23° E 22:15:54 10° NNE
CSL-04 Rocket 3.7 22:07:10 10° SSE 22:12:34 66° ENE 22:17:59 10° N
Cosmos 1331 Rocket 4.0 22:09:01 10° S 22:14:13 73° ESE 22:19:25 10° NNE
Meteor 2-3 Rocket 4.1 22:11:13 10° S 22:16:43 46° E 22:22:04 10° NNE
CZ-2D R/B 3.6 22:24:45 10° S 22:28:34 67° WSW 22:32:20 10° NNW
Cosmos 332 Rocket 4.4 22:24:24 10° SSW 22:29:14 59° WNW 22:34:00 10° N
Cosmos 2173 Rocket 4.2 22:24:31 10° S 22:30:26 48° E 22:36:21 10° NNE
GPS 2-15 Rocket1 4.3 22:26:54 10° W 22:31:19 32° NNW 22:34:43 15° NE
Hubble Space Telescope 2.7 22:31:01 10° WSW 22:34:31 25° S 22:38:01 10° SE
Cosmos 2123 Rocket 4.1 22:29:18 10° N 22:35:21 56° E 22:41:25 10° SSE
ASTRO E2 2.9 22:33:38 10° WNW 22:37:36 70° SSW 22:41:35 10° ESE
Lacrosse 5 rocket 2.2 22:39:49 10° S 22:43:25 32° SE 22:44:53 25° E
STARLINK-43 4.1 22:40:50 10° SSW 22:44:20 38° SE 22:45:39 28° E
Cosmos 1375 Rocket 4.4 22:39:39 10° SSW 22:45:58 89° ESE 22:51:26 14° NNE
CZ-2C R/B 3.9 22:46:04 10° SE 22:50:12 26° E 22:50:36 26° ENE
GENESIS II 4.1 22:46:46 10° SSW 22:50:35 69° ESE 22:52:14 32° NE
ATLAS CENTAUR R/B 1.1 22:47:41 10° N 22:51:06 49° ENE 22:54:37 10° SE
Delta 7925 Rocket 4.4 22:44:15 10° NW 22:51:44 48° NNE 22:55:14 25° E
Delta 198 2.9 22:48:26 10° WSW 22:52:06 84° SSE 22:53:20 39° E
Cosmos 1400 Rocket 3.8 22:52:45 28° E 22:52:45 28° E 22:56:04 10° SSE
ARGOS 3.8 22:48:14 10° SE 22:53:01 32° E 22:54:41 27° NE
Cosmos 614 Rocket 4.1 22:48:11 10° N 22:53:14 51° ENE 22:58:17 10° SSE
HJ-1C 4.1 22:50:19 10° S 22:53:40 55° WSW 22:56:59 10° NNW
IRS-1A Rocket 4.3 22:49:44 10° SSE 22:55:38 66° ENE 23:01:24 10° N
SJ-11-01 4.2 22:54:40 10° SSE 22:59:28 79° ENE 23:04:13 10° N
Cosmos 2278 Rocket 2.6 22:58:14 10° SSW 23:03:51 63° WNW 23:08:32 15° N
Cosmos 1238 Rocket 3.8 23:02:57 10° SSE 23:04:23 23° SSE 23:04:23 23° SSE
Cosmos 2061 Rocket 3.9 23:01:09 10° S 23:07:28 73° E 23:11:53 21° NNE
CZ-3 Stage 3 2.7 23:05:01 10° SW 23:08:21 53° SSE 23:12:49 26° E
Cosmos 1805 Rocket 3.6 23:05:51 10° S 23:10:16 57° E 23:10:57 51° ENE
Cosmos 1633 3.2 23:08:35 10° S 23:11:19 41° SE 23:11:19 41° SE
H-2A R/B 1.8 23:10:29 10° SSE 23:15:24 70° ENE 23:17:49 30° N
Cosmos 1151 Rocket 3.8 23:16:25 37° ESE 23:16:25 37° ESE 23:19:39 10° SSE
USA 186 2.4 23:14:17 10° S 23:16:47 49° SSW 23:16:47 49° SSW
CZ-2C R/B 3.4 23:14:21 11° N 23:19:34 52° W 23:24:54 10° SSW
Cosmos 1864 Rocket 4.4 23:14:29 10° S 23:20:53 73° E 23:23:43 35° NNE
USA 215 3.4 23:19:12 31° NNE 23:22:35 69° NW 23:29:07 10° SW
Cosmos 2297 4.0 23:18:39 10° S 23:24:10 46° ESE 23:24:33 45° E
Cosmos 1140 Rocket 3.3 23:23:57 53° NNE 23:24:57 67° ENE 23:30:06 10° SSE
Cosmos 1447 Rocket 4.4 23:21:37 27° N 23:25:09 73° E 23:31:29 10° S
SL-24 R/B 4.1 23:20:52 10° S 23:25:12 77° WSW 23:27:00 35° NNW
Cosmos 292 Rocket 4.5 23:21:13 10° S 23:25:09 39° SE 23:25:09 39° SE
Cosmos 1943 Rocket 4.2 23:23:46 10° SE 23:25:23 13° SE 23:25:23 13° SE
SJ-6B 3.0 23:25:52 10° S 23:30:00 74° WSW 23:30:15 71° WNW
Palapa B4 Rocket 3.5 23:31:36 10° W 23:34:19 45° W 23:34:19 45° W
ATLAS 3B CENTAUR R/B 3.0 23:32:54 10° WSW 23:36:17 36° S 23:39:08 24° SE
SL-08 RB Rocket 4.0 23:36:42 10° SSE 23:40:37 61° SSE 23:40:37 61° SSE
Cosmos 1603 4.1 23:36:35 10° NNW 23:42:05 60° WSW 23:47:38 10° S
Cosmos 1992 Rocket 3.8 23:36:55 10° SSW 23:42:10 87° WNW 23:42:15 86° NNW
Resurs 01 Rocket 4.1 23:41:17 10° SSE 23:41:35 12° SSE 23:41:35 12° SSE
SPOT 3 Rocket 3.4 23:40:56 10° SSE 23:46:00 85° S 23:46:00 85° S
USA 229 DEB 3.9 23:45:43 10° SSW 23:51:45 48° SE 23:51:45 48° SE
USA 229 4.0 23:45:50 10° SSW 23:51:51 47° SE 23:51:51 47° SE
